Time,TemperatureF,DewpointF,PressureIn,WindDirection,WindDirectionDegrees,WindSpeedMPH,WindSpeedGustMPH,Humidity,HourlyPrecipIn,Conditions,Clouds,dailyrainin,SolarRadiationWatts/m^2,SoftwareType,DateUTC
2015-07-30 00:01:00,68.9,67.7,29.39,NE,42,0.0,0.0,96,0.00,,,0.00,0,WeatherCatV2.20B280,2015-07-30 04:01:00,
2015-07-30 00:06:00,68.8,67.6,29.39,NE,42,0.0,0.0,96,0.00,,,0.00,0,WeatherCatV2.20B280,2015-07-30 04:06:00,
2015-07-30 00:11:00,68.8,67.6,29.39,NE,42,0.0,0.0,96,0.00,,,0.00,0,WeatherCatV2.20B280,2015-07-30 04:11:00,
2015-07-30 00:16:00,68.7,67.2,29.39,NE,42,0.0,0.0,95,0.00,,,0.00,0,WeatherCatV2.20B280,2015-07-30 04:16:00,
2015-07-30 00:21:00,68.5,67.0,29.38,NE,42,0.0,0.0,95,0.00,,,0.00,0,WeatherCatV2.20B280,2015-07-30 04:21:00,
2015-07-30 00:26:00,68.4,67.2,29.39,NE,42,0.0,0.0,96,0.00,,,0.00,0,WeatherCatV2.20B280,2015-07-30 04:26:00,
2015-07-30 00:31:00,68.3,67.1,29.39,NE,42,0.0,0.0,96,0.00,,,0.00,0,WeatherCatV2.20B280,2015-07-30 04:31:00,
2015-07-30 00:36:00,68.2,67.0,29.39,NE,42,0.0,0.0,96,0.00,,,0.00,0,WeatherCatV2.20B280,2015-07-30 04:36:00,
2015-07-30 00:41:00,68.1,66.6,29.39,NE,42,0.0,0.0,95,0.00,,,0.00,0,WeatherCatV2.20B280,2015-07-30 04:41:00,
2015-07-30 00:46:00,68.1,66.6,29.39,NE,42,0.0,0.0,95,0.00,,,0.00,0,WeatherCatV2.20B280,2015-07-30 04:46:00,
2015-07-30 00:51:00,68.0,66.8,29.39,NE,42,0.0,0.0,96,0.00,,,0.00,0,WeatherCatV2.20B280,2015-07-30 04:51:00,
2015-07-30 00:56:00,67.9,66.7,29.39,NE,42,0.0,0.0,96,0.00,,,0.00,0,WeatherCatV2.20B280,2015-07-30 04:56:00,
2015-07-30 01:01:00,67.9,66.7,29.39,NE,42,0.0,0.0,96,0.00,,,0.00,0,WeatherCatV2.20B280,2015-07-30 05:01:00,
2015-07-30 01:06:00,67.9,66.7,29.38,NE,42,0.0,0.0,96,0.00,,,0.00,0,WeatherCatV2.20B280,2015-07-30 05:06:00,
2015-07-30 01:11:00,67.8,66.6,29.38,NE,42,0.0,0.0,96,0.00,,,0.00,0,WeatherCatV2.20B280,2015-07-30 05:11:00,
2015-07-30 01:16:00,67.8,66.9,29.38,NE,42,0.0,0.0,97,0.00,,,0.00,0,WeatherCatV2.20B280,2015-07-30 05:16:00,
2015-07-30 01:21:00,67.7,66.8,29.38,NE,42,0.0,0.0,97,0.00,,,0.00,0,WeatherCatV2.20B280,2015-07-30 05:21:00,
2015-07-30 01:26:00,67.7,66.8,29.37,NE,42,0.0,0.0,97,0.00,,,0.00,0,WeatherCatV2.20B280,2015-07-30 05:26:00,
2015-07-30 01:31:00,67.7,66.8,29.38,NE,42,0.0,0.0,97,0.00,,,0.00,0,WeatherCatV2.20B280,2015-07-30 05:31:00,
2015-07-30 01:36:00,67.6,66.7,29.38,NE,42,0.0,0.0,97,0.00,,,0.00,0,WeatherCatV2.20B280,2015-07-30 05:36:00,
2015-07-30 01:41:00,67.6,66.7,29.38,NE,42,0.0,0.0,97,0.00,,,0.00,0,WeatherCatV2.20B280,2015-07-30 05:41:00,
2015-07-30 01:46:00,67.4,66.5,29.38,NE,42,0.0,0.0,97,0.00,,,0.00,0,WeatherCatV2.20B280,2015-07-30 05:46:00,
2015-07-30 01:51:00,67.4,66.2,29.38,NE,42,0.0,0.0,96,0.00,,,0.00,0,WeatherCatV2.20B280,2015-07-30 05:51:00,
2015-07-30 01:56:00,67.3,66.1,29.38,NE,42,0.0,0.0,96,0.00,,,0.00,0,WeatherCatV2.20B280,2015-07-30 05:56:00,
2015-07-30 02:01:00,67.2,66.3,29.38,NE,42,0.0,0.0,97,0.00,,,0.00,0,WeatherCatV2.20B280,2015-07-30 06:01:00,
2015-07-30 02:06:00,67.1,66.2,29.38,NE,42,0.0,0.0,97,0.00,,,0.00,0,WeatherCatV2.20B280,2015-07-30 06:06:00,
2015-07-30 02:11:00,67.1,66.2,29.38,NE,42,0.0,0.0,97,0.00,,,0.00,0,WeatherCatV2.20B280,2015-07-30 06:11:00,
2015-07-30 02:16:00,67.1,66.2,29.38,NE,42,0.0,0.0,97,0.00,,,0.00,0,WeatherCatV2.20B280,2015-07-30 06:16:00,
2015-07-30 02:21:00,67.0,66.1,29.38,NE,42,0.0,0.0,97,0.00,,,0.00,0,WeatherCatV2.20B280,2015-07-30 06:21:00,
2015-07-30 02:26:00,67.0,66.1,29.38,NE,42,0.0,0.0,97,0.00,,,0.00,0,WeatherCatV2.20B280,2015-07-30 06:26:00,
2015-07-30 02:31:00,67.0,66.1,29.38,NE,42,0.0,1.0,97,0.00,,,0.00,0,WeatherCatV2.20B280,2015-07-30 06:31:00,
2015-07-30 02:36:00,67.0,66.1,29.38,NE,42,0.0,0.0,97,0.00,,,0.00,0,WeatherCatV2.20B280,2015-07-30 06:36:00,
2015-07-30 02:41:00,67.0,66.1,29.38,NE,42,0.0,0.0,97,0.00,,,0.00,0,WeatherCatV2.20B280,2015-07-30 06:41:00,
2015-07-30 02:46:00,67.0,66.1,29.38,NE,42,0.0,0.0,97,0.00,,,0.00,0,WeatherCatV2.20B280,2015-07-30 06:46:00,
2015-07-30 02:51:00,67.0,66.1,29.38,NE,42,0.0,1.0,97,0.00,,,0.00,0,WeatherCatV2.20B280,2015-07-30 06:51:00,
2015-07-30 03:01:00,67.0,66.4,29.38,NE,42,0.0,0.0,98,0.00,,,0.00,0,WeatherCatV2.20B280,2015-07-30 07:01:00,
2015-07-30 03:06:00,67.0,66.4,29.38,NE,42,0.0,0.0,98,0.00,,,0.00,0,WeatherCatV2.20B280,2015-07-30 07:06:00,
2015-07-30 03:11:00,67.0,66.4,29.38,NE,42,0.0,0.0,98,0.00,,,0.00,0,WeatherCatV2.20B280,2015-07-30 07:11:00,
2015-07-30 03:16:00,67.1,66.5,29.38,NE,42,0.0,0.0,98,0.00,,,0.00,0,WeatherCatV2.20B280,2015-07-30 07:16:00,
2015-07-30 03:21:00,67.1,66.5,29.37,NE,42,0.0,0.0,98,0.00,,,0.00,0,WeatherCatV2.20B280,2015-07-30 07:21:00,
2015-07-30 03:26:00,67.1,66.5,29.37,NE,42,0.0,0.0,98,0.00,,,0.00,0,WeatherCatV2.20B280,2015-07-30 07:26:00,
2015-07-30 03:31:00,67.1,66.5,29.37,NE,42,0.0,0.0,98,0.00,,,0.00,0,WeatherCatV2.20B280,2015-07-30 07:31:00,
2015-07-30 03:36:00,67.1,66.5,29.37,NE,42,0.0,0.0,98,0.00,,,0.00,0,WeatherCatV2.20B280,2015-07-30 07:36:00,
2015-07-30 03:41:00,67.1,66.5,29.37,NE,42,0.0,0.0,98,0.00,,,0.00,0,WeatherCatV2.20B280,2015-07-30 07:41:00,
2015-07-30 03:46:00,67.1,66.5,29.37,NE,42,0.0,1.0,98,0.00,,,0.00,0,WeatherCatV2.20B280,2015-07-30 07:46:00,
2015-07-30 03:51:00,67.0,66.4,29.37,NE,42,0.0,0.0,98,0.00,,,0.00,0,WeatherCatV2.20B280,2015-07-30 07:51:00,
2015-07-30 03:56:00,67.0,66.4,29.37,NE,42,0.0,0.0,98,0.00,,,0.00,0,WeatherCatV2.20B280,2015-07-30 07:56:00,
2015-07-30 04:01:00,67.0,66.4,29.37,NE,42,0.0,0.0,98,0.00,,,0.00,0,WeatherCatV2.20B280,2015-07-30 08:01:00,
2015-07-30 04:06:00,66.9,66.3,29.37,NE,42,0.0,0.0,98,0.00,,,0.00,0,WeatherCatV2.20B280,2015-07-30 08:06:00,
2015-07-30 04:11:00,66.9,66.3,29.37,NE,42,0.0,0.0,98,0.00,,,0.00,0,WeatherCatV2.20B280,2015-07-30 08:11:00,
2015-07-30 04:16:00,66.9,66.3,29.37,NE,42,0.0,0.0,98,0.00,,,0.00,0,WeatherCatV2.20B280,2015-07-30 08:16:00,
2015-07-30 04:21:00,66.8,66.2,29.37,NE,42,0.0,0.0,98,0.00,,,0.00,0,WeatherCatV2.20B280,2015-07-30 08:21:00,
2015-07-30 04:26:00,66.8,66.2,29.37,NE,42,0.0,0.0,98,0.00,,,0.00,0,WeatherCatV2.20B280,2015-07-30 08:26:00,
2015-07-30 04:31:00,66.8,66.2,29.37,NE,42,0.0,0.0,98,0.00,,,0.00,0,WeatherCatV2.20B280,2015-07-30 08:31:00,
2015-07-30 04:36:00,66.7,66.1,29.37,NE,42,0.0,0.0,98,0.00,,,0.00,0,WeatherCatV2.20B280,2015-07-30 08:36:00,
2015-07-30 04:41:00,66.7,66.1,29.37,NE,42,0.0,0.0,98,0.00,,,0.00,0,WeatherCatV2.20B280,2015-07-30 08:41:00,
2015-07-30 04:46:00,66.7,66.1,29.37,NE,42,0.0,0.0,98,0.00,,,0.00,0,WeatherCatV2.20B280,2015-07-30 08:46:00,
2015-07-30 04:51:00,66.6,66.0,29.36,NE,42,0.0,0.0,98,0.00,,,0.00,0,WeatherCatV2.20B280,2015-07-30 08:51:00,
2015-07-30 04:56:00,66.6,66.0,29.36,NE,42,0.0,0.0,98,0.00,,,0.00,0,WeatherCatV2.20B280,2015-07-30 08:56:00,
2015-07-30 05:01:00,66.6,66.0,29.37,NE,42,0.0,0.0,98,0.00,,,0.00,0,WeatherCatV2.20B280,2015-07-30 09:01:00,
2015-07-30 05:06:00,66.5,65.9,29.37,NE,42,0.0,0.0,98,0.00,,,0.00,0,WeatherCatV2.20B280,2015-07-30 09:06:00,
2015-07-30 05:11:00,66.5,65.9,29.37,NE,42,0.0,0.0,98,0.00,,,0.00,0,WeatherCatV2.20B280,2015-07-30 09:11:00,
2015-07-30 05:16:00,66.5,65.9,29.37,NE,42,0.0,0.0,98,0.00,,,0.00,0,WeatherCatV2.20B280,2015-07-30 09:16:00,
2015-07-30 05:21:00,66.4,65.8,29.37,NE,42,0.0,0.0,98,0.00,,,0.00,0,WeatherCatV2.20B280,2015-07-30 09:21:00,
2015-07-30 05:26:00,66.4,65.8,29.37,NE,42,0.0,0.0,98,0.00,,,0.00,0,WeatherCatV2.20B280,2015-07-30 09:26:00,
2015-07-30 05:31:00,66.4,65.8,29.37,NE,42,0.0,0.0,98,0.00,,,0.00,0,WeatherCatV2.20B280,2015-07-30 09:31:00,
2015-07-30 05:36:00,66.4,65.8,29.37,NE,42,0.0,0.0,98,0.00,,,0.00,0,WeatherCatV2.20B280,2015-07-30 09:36:00,
2015-07-30 05:41:00,66.3,65.7,29.37,NE,42,0.0,0.0,98,0.00,,,0.00,0,WeatherCatV2.20B280,2015-07-30 09:41:00,
2015-07-30 05:46:00,66.3,65.7,29.37,NE,42,0.0,1.0,98,0.00,,,0.00,0,WeatherCatV2.20B280,2015-07-30 09:46:00,
2015-07-30 05:51:00,66.3,65.7,29.37,NE,42,0.0,0.0,98,0.00,,,0.00,0,WeatherCatV2.20B280,2015-07-30 09:51:00,
2015-07-30 06:01:00,66.3,65.7,29.37,NE,42,0.0,0.0,98,0.00,,,0.00,0,WeatherCatV2.20B280,2015-07-30 10:01:00,
2015-07-30 06:06:00,66.3,65.7,29.37,NE,42,0.0,0.0,98,0.00,,,0.00,0,WeatherCatV2.20B280,2015-07-30 10:06:00,
2015-07-30 06:11:00,66.3,65.7,29.37,NE,42,0.0,0.0,98,0.00,,,0.00,5,WeatherCatV2.20B280,2015-07-30 10:11:00,
2015-07-30 06:16:00,66.3,65.7,29.37,NE,42,0.0,0.0,98,0.00,,,0.00,7,WeatherCatV2.20B280,2015-07-30 10:16:00,
2015-07-30 06:21:00,66.3,65.7,29.37,NE,42,0.0,0.0,98,0.00,,,0.00,7,WeatherCatV2.20B280,2015-07-30 10:21:00,
2015-07-30 06:26:00,66.3,65.7,29.37,NE,42,0.0,0.0,98,0.00,,,0.00,7,WeatherCatV2.20B280,2015-07-30 10:26:00,
2015-07-30 06:36:00,66.5,65.9,29.37,NE,42,0.0,0.0,98,0.00,,,0.00,9,WeatherCatV2.20B280,2015-07-30 10:36:00,
2015-07-30 06:41:00,66.5,65.9,29.37,NE,42,0.0,0.0,98,0.00,,,0.00,7,WeatherCatV2.20B280,2015-07-30 10:41:00,
2015-07-30 06:46:00,66.5,65.9,29.37,NE,42,0.0,0.0,98,0.00,,,0.00,14,WeatherCatV2.20B280,2015-07-30 10:46:00,
2015-07-30 06:51:00,66.5,66.2,29.37,NE,42,0.0,0.0,99,0.00,,,0.00,11,WeatherCatV2.20B280,2015-07-30 10:51:00,
2015-07-30 06:56:00,66.6,66.3,29.37,NE,42,0.0,0.0,99,0.00,,,0.00,14,WeatherCatV2.20B280,2015-07-30 10:56:00,
2015-07-30 07:01:00,66.6,66.3,29.37,NE,42,0.0,0.0,99,0.00,,,0.00,14,WeatherCatV2.20B280,2015-07-30 11:01:00,
2015-07-30 07:06:00,66.7,66.4,29.37,NE,42,0.0,0.0,99,0.00,,,0.00,14,WeatherCatV2.20B280,2015-07-30 11:06:00,
2015-07-30 07:11:00,66.8,66.5,29.37,NE,42,0.0,0.0,99,0.00,,,0.00,19,WeatherCatV2.20B280,2015-07-30 11:11:00,
2015-07-30 07:21:00,67.0,66.7,29.37,NE,42,0.0,0.0,99,0.00,,,0.00,21,WeatherCatV2.20B280,2015-07-30 11:21:00,
2015-07-30 07:26:00,67.1,66.8,29.37,NE,42,0.0,0.0,99,0.00,,,0.00,23,WeatherCatV2.20B280,2015-07-30 11:26:00,
2015-07-30 07:31:00,67.2,66.9,29.37,NE,42,0.0,0.0,99,0.00,,,0.00,28,WeatherCatV2.20B280,2015-07-30 11:31:00,
2015-07-30 07:36:00,67.4,67.1,29.37,NE,42,0.0,0.0,99,0.00,,,0.00,14,WeatherCatV2.20B280,2015-07-30 11:36:00,
2015-07-30 07:41:00,67.6,67.3,29.37,NE,42,0.0,0.0,99,0.00,,,0.00,23,WeatherCatV2.20B280,2015-07-30 11:41:00,
2015-07-30 07:46:00,67.7,67.4,29.37,NE,42,0.0,0.0,99,0.00,,,0.00,26,WeatherCatV2.20B280,2015-07-30 11:46:00,
2015-07-30 07:51:00,67.7,67.4,29.37,NE,42,0.0,0.0,99,0.00,,,0.00,39,WeatherCatV2.20B280,2015-07-30 11:51:00,
2015-07-30 07:56:00,67.8,67.5,29.36,NE,42,0.0,0.0,99,0.00,,,0.00,33,WeatherCatV2.20B280,2015-07-30 11:56:00,
2015-07-30 08:01:00,67.9,67.6,29.36,NE,42,0.0,0.0,99,0.00,,,0.00,42,WeatherCatV2.20B280,2015-07-30 12:01:00,
2015-07-30 08:06:00,68.0,67.7,29.37,NE,42,0.0,0.0,99,0.00,,,0.00,35,WeatherCatV2.20B280,2015-07-30 12:06:00,
2015-07-30 08:11:00,68.1,68.1,29.37,NE,42,0.0,0.0,100,0.00,,,0.00,51,WeatherCatV2.20B280,2015-07-30 12:11:00,
2015-07-30 08:16:00,68.2,68.2,29.37,NE,42,0.0,0.0,100,0.00,,,0.00,54,WeatherCatV2.20B280,2015-07-30 12:16:00,
2015-07-30 08:21:00,68.3,68.0,29.37,NE,42,0.0,0.0,99,0.00,,,0.00,47,WeatherCatV2.20B280,2015-07-30 12:21:00,
2015-07-30 08:26:00,68.4,68.4,29.36,NE,42,0.0,0.0,100,0.00,,,0.00,32,WeatherCatV2.20B280,2015-07-30 12:26:00,
2015-07-30 08:31:00,68.5,68.2,29.36,NE,42,0.0,0.0,99,0.00,,,0.00,53,WeatherCatV2.20B280,2015-07-30 12:31:00,
2015-07-30 08:36:00,68.6,68.3,29.36,NE,42,0.0,1.0,99,0.00,,,0.00,84,WeatherCatV2.20B280,2015-07-30 12:36:00,
2015-07-30 08:41:00,68.8,68.8,29.36,NE,42,0.0,0.0,100,0.00,,,0.00,63,WeatherCatV2.20B280,2015-07-30 12:41:00,
2015-07-30 08:46:00,69.0,69.0,29.36,West,279,1.0,2.0,100,0.00,,,0.00,91,WeatherCatV2.20B280,2015-07-30 12:46:00,
2015-07-30 08:51:00,69.2,69.2,29.36,West,279,0.0,1.0,100,0.00,,,0.00,69,WeatherCatV2.20B280,2015-07-30 12:51:00,
2015-07-30 08:56:00,69.3,69.3,29.36,West,279,0.0,0.0,100,0.00,,,0.00,47,WeatherCatV2.20B280,2015-07-30 12:56:00,
2015-07-30 09:01:00,69.5,69.5,29.36,West,279,0.0,0.0,100,0.00,,,0.00,44,WeatherCatV2.20B280,2015-07-30 13:01:00,
2015-07-30 09:06:00,69.7,69.7,29.36,West,279,0.0,0.0,100,0.00,,,0.00,69,WeatherCatV2.20B280,2015-07-30 13:06:00,
2015-07-30 09:11:00,69.9,69.9,29.36,West,273,2.0,3.0,100,0.00,,,0.00,63,WeatherCatV2.20B280,2015-07-30 13:11:00,
2015-07-30 09:16:00,70.1,70.1,29.36,West,273,0.0,0.0,100,0.00,,,0.00,91,WeatherCatV2.20B280,2015-07-30 13:16:00,
2015-07-30 09:26:00,70.5,70.5,29.35,West,273,0.0,0.0,100,0.00,,,0.00,88,WeatherCatV2.20B280,2015-07-30 13:26:00,
2015-07-30 09:31:00,70.8,70.8,29.35,West,273,0.0,0.0,100,0.00,,,0.00,90,WeatherCatV2.20B280,2015-07-30 13:31:00,
2015-07-30 09:36:00,71.0,71.0,29.35,West,273,0.0,0.0,100,0.00,,,0.00,90,WeatherCatV2.20B280,2015-07-30 13:36:00,
2015-07-30 09:41:00,71.2,71.2,29.35,West,273,0.0,0.0,100,0.00,,,0.00,116,WeatherCatV2.20B280,2015-07-30 13:41:00,
2015-07-30 09:46:00,71.3,71.3,29.35,West,273,0.0,0.0,100,0.00,,,0.00,77,WeatherCatV2.20B280,2015-07-30 13:46:00,
2015-07-30 09:51:00,71.6,71.6,29.35,West,273,0.0,0.0,100,0.00,,,0.00,109,WeatherCatV2.20B280,2015-07-30 13:51:00,
2015-07-30 09:56:00,71.7,71.4,29.35,West,273,0.0,0.0,99,0.00,,,0.00,102,WeatherCatV2.20B280,2015-07-30 13:56:00,
2015-07-30 10:01:00,71.9,71.3,29.34,West,273,0.0,0.0,98,0.00,,,0.00,113,WeatherCatV2.20B280,2015-07-30 14:01:00,
2015-07-30 10:06:00,72.2,71.3,29.34,West,273,0.0,0.0,97,0.00,,,0.00,104,WeatherCatV2.20B280,2015-07-30 14:06:00,
2015-07-30 10:11:00,72.6,71.1,29.34,West,273,0.0,0.0,95,0.00,,,0.00,91,WeatherCatV2.20B280,2015-07-30 14:11:00,
2015-07-30 10:16:00,73.0,71.5,29.34,West,273,0.0,0.0,95,0.00,,,0.00,211,WeatherCatV2.20B280,2015-07-30 14:16:00,
2015-07-30 10:21:00,73.3,71.5,29.34,West,273,0.0,0.0,94,0.00,,,0.00,120,WeatherCatV2.20B280,2015-07-30 14:21:00,
2015-07-30 10:26:00,73.6,71.4,29.34,West,273,0.0,0.0,93,0.00,,,0.00,111,WeatherCatV2.20B280,2015-07-30 14:26:00,
2015-07-30 10:31:00,73.9,71.7,29.34,West,273,0.0,0.0,93,0.00,,,0.00,93,WeatherCatV2.20B280,2015-07-30 14:31:00,
2015-07-30 10:36:00,74.3,71.8,29.34,West,273,0.0,0.0,92,0.00,,,0.00,74,WeatherCatV2.20B280,2015-07-30 14:36:00,
2015-07-30 10:41:00,74.6,72.1,29.34,West,273,0.0,0.0,92,0.00,,,0.00,135,WeatherCatV2.20B280,2015-07-30 14:41:00,
2015-07-30 10:46:00,74.8,71.7,29.34,West,273,0.0,0.0,90,0.00,,,0.00,83,WeatherCatV2.20B280,2015-07-30 14:46:00,
2015-07-30 10:51:00,75.1,72.3,29.34,West,273,0.0,0.0,91,0.00,,,0.00,121,WeatherCatV2.20B280,2015-07-30 14:51:00,
2015-07-30 10:56:00,75.4,71.9,29.33,West,264,0.0,0.0,89,0.00,,,0.00,262,WeatherCatV2.20B280,2015-07-30 14:56:00,
2015-07-30 11:01:00,75.9,72.4,29.33,West,264,0.0,0.0,89,0.00,,,0.00,262,WeatherCatV2.20B280,2015-07-30 15:01:00,
2015-07-30 11:06:00,76.4,73.2,29.33,West,264,0.0,1.0,90,0.00,,,0.00,236,WeatherCatV2.20B280,2015-07-30 15:06:00,
2015-07-30 11:11:00,76.9,73.4,29.33,West,264,0.0,0.0,89,0.00,,,0.00,550,WeatherCatV2.20B280,2015-07-30 15:11:00,
2015-07-30 11:16:00,77.5,73.7,29.33,West,264,0.0,0.0,88,0.00,,,0.00,278,WeatherCatV2.20B280,2015-07-30 15:16:00,
2015-07-30 11:21:00,78.1,73.6,29.33,West,264,0.0,0.0,86,0.00,,,0.00,107,WeatherCatV2.20B280,2015-07-30 15:21:00,
2015-07-30 11:26:00,78.7,73.8,29.32,West,264,0.0,0.0,85,0.00,,,0.00,146,WeatherCatV2.20B280,2015-07-30 15:26:00,
2015-07-30 11:31:00,79.0,72.3,29.32,West,264,0.0,0.0,80,0.00,,,0.00,93,WeatherCatV2.20B280,2015-07-30 15:31:00,
2015-07-30 11:36:00,79.3,72.9,29.32,West,264,0.0,0.0,81,0.00,,,0.00,146,WeatherCatV2.20B280,2015-07-30 15:36:00,
2015-07-30 11:41:00,79.6,73.2,29.32,West,264,0.0,0.0,81,0.00,,,0.00,93,WeatherCatV2.20B280,2015-07-30 15:41:00,
2015-07-30 11:46:00,79.9,73.5,29.32,West,264,0.0,0.0,81,0.00,,,0.00,116,WeatherCatV2.20B280,2015-07-30 15:46:00,
2015-07-30 11:51:00,80.1,73.7,29.31,West,264,0.0,0.0,81,0.00,,,0.00,100,WeatherCatV2.20B280,2015-07-30 15:51:00,
2015-07-30 11:56:00,80.3,74.3,29.31,West,264,0.0,0.0,82,0.00,,,0.00,88,WeatherCatV2.20B280,2015-07-30 15:56:00,
2015-07-30 12:01:00,80.4,74.0,29.31,West,264,0.0,0.0,81,0.00,,,0.00,86,WeatherCatV2.20B280,2015-07-30 16:01:00,
2015-07-30 12:14:00,80.7,74.7,29.30,West,264,0.0,0.0,82,0.00,,,0.00,91,WeatherCatV2.20B280,2015-07-30 16:14:00,
2015-07-30 12:19:00,80.9,75.6,29.30,West,264,0.0,0.0,84,0.00,,,0.00,102,WeatherCatV2.20B280,2015-07-30 16:19:00,
2015-07-30 12:29:00,81.2,75.2,29.30,West,264,0.0,0.0,82,0.00,,,0.00,88,WeatherCatV2.20B280,2015-07-30 16:29:00,
2015-07-30 12:34:00,81.4,75.0,29.30,West,264,0.0,0.0,81,0.00,,,0.00,100,WeatherCatV2.20B280,2015-07-30 16:34:00,
2015-07-30 12:39:00,81.6,74.4,29.30,West,264,0.0,0.0,79,0.00,,,0.00,74,WeatherCatV2.20B280,2015-07-30 16:39:00,
2015-07-30 12:44:00,81.7,74.5,29.29,West,264,0.0,0.0,79,0.00,,,0.00,93,WeatherCatV2.20B280,2015-07-30 16:44:00,
2015-07-30 12:49:00,81.9,75.5,29.29,West,264,0.0,1.0,81,0.00,,,0.00,95,WeatherCatV2.20B280,2015-07-30 16:49:00,
2015-07-30 12:54:00,82.1,76.0,29.28,West,264,0.0,0.0,82,0.00,,,0.00,114,WeatherCatV2.20B280,2015-07-30 16:54:00,
2015-07-30 12:59:00,82.2,74.2,29.28,WSW,254,0.0,0.0,77,0.00,,,0.00,111,WeatherCatV2.20B280,2015-07-30 16:59:00,
2015-07-30 13:04:00,82.4,73.7,29.28,WSW,254,0.0,0.0,75,0.00,,,0.00,105,WeatherCatV2.20B280,2015-07-30 17:04:00,
2015-07-30 13:09:00,82.6,73.8,29.28,WSW,254,0.0,0.0,75,0.00,,,0.00,95,WeatherCatV2.20B280,2015-07-30 17:09:00,
2015-07-30 13:14:00,82.8,74.0,29.28,WSW,254,0.0,1.0,75,0.00,,,0.00,81,WeatherCatV2.20B280,2015-07-30 17:14:00,
2015-07-30 13:19:00,83.0,74.2,29.28,WSW,254,0.0,1.0,75,0.00,,,0.00,84,WeatherCatV2.20B280,2015-07-30 17:19:00,
2015-07-30 13:24:00,83.2,74.4,29.27,WSW,254,0.0,0.0,75,0.00,,,0.00,98,WeatherCatV2.20B280,2015-07-30 17:24:00,
2015-07-30 13:29:00,83.3,74.5,29.27,SW,236,0.0,2.0,75,0.00,,,0.00,120,WeatherCatV2.20B280,2015-07-30 17:29:00,
2015-07-30 13:34:00,83.4,73.0,29.27,SW,225,0.0,1.0,71,0.00,,,0.00,134,WeatherCatV2.20B280,2015-07-30 17:34:00,
2015-07-30 13:39:00,83.5,73.9,29.26,SW,225,0.0,0.0,73,0.00,,,0.00,100,WeatherCatV2.20B280,2015-07-30 17:39:00,